time_stamp(utc),avg(mph),gust(mph),direction(deg),12m_air_temp(f),sonic_u(cm/s),sonic_v(cm/s),sonic_w(cm/s),pressure,2m_air_temp(f),pyranometer(W/m^2)
"2019-02-10 00:02:07+00",5.7,6.7,,29.7,-171,172,15,1038.04,27.3,0
"2019-02-10 00:07:07+00",6.1,7.1,,30,-149,212,18,1038.22,27.4,0
"2019-02-10 00:12:07+00",8.1,9.1,,30.1,-221,272,21,1038.17,27.6,0
"2019-02-10 00:17:07+00",7.9,8.9,,30.1,-219,268,24,1038.18,27.7,0
"2019-02-10 00:22:07+00",6.1,7.1,,29.9,-172,201,16,1038.25,27.7,0
"2019-02-10 00:27:07+00",3.5,4.5,,29.7,-130,71,10,1038.25,27.6,0
"2019-02-10 00:32:07+00",4.8,5.8,,29.7,-167,125,18,1038.38,27.5,0
"2019-02-10 00:37:07+00",8.0,9.0,,29.9,-253,242,30,1038.15,27.4,0
"2019-02-10 00:42:07+00",8.0,9.0,,29.8,-185,290,27,1038.06,27.7,0
"2019-02-10 00:47:07+00",4.7,5.7,,29.6,-131,145,18,1038.14,27.7,0
"2019-02-10 00:52:07+00",4.8,5.8,,29.4,-134,157,17,1038.28,27.5,0
"2019-02-10 00:57:07+00",6.8,7.8,,29.4,-178,229,17,1038.17,27.4,0
"2019-02-10 01:02:07+00",7.6,8.6,,29.5,-189,271,18,1038.24,27.2,0
"2019-02-10 01:07:07+00",5.5,6.5,,29.3,-148,179,11,1038.28,27.1,0
"2019-02-10 01:12:07+00",6.3,7.3,,29.2,-225,166,21,1038.11,27,0
"2019-02-10 01:17:07+00",7.5,8.5,,29.5,-228,233,18,1038.07,26.9,0
"2019-02-10 01:22:07+00",6.5,7.5,,29.4,-238,161,23,1037.98,26.8,0
"2019-02-10 01:27:07+00",6.7,7.7,,29.4,-259,140,18,1038.06,26.9,0
"2019-02-10 01:32:07+00",6.9,7.9,,29.3,-275,144,31,1038.06,27,0
"2019-02-10 01:37:07+00",8.7,10.7,,29.2,-302,237,26,1038.07,27,0
"2019-02-10 01:42:07+00",8.2,10.2,,29.3,-267,239,33,1038.18,27.3,0
"2019-02-10 01:47:07+00",9.4,10.4,,29.2,-348,232,22,1038.26,27.4,0
"2019-02-10 01:52:07+00",7.8,8.8,,29.1,-276,213,27,1038.38,27.4,0
"2019-02-10 01:57:07+00",9.1,10.1,,29.2,-314,252,28,1038.5,27.5,0
"2019-02-10 02:02:07+00",9.8,10.8,,29.1,-365,247,33,1038.55,27.6,0
"2019-02-10 02:07:07+00",10.7,11.7,,29.1,-397,268,30,1038.52,27.6,0
"2019-02-10 02:12:07+00",8.4,9.4,,29,-279,236,41,1038.49,27.7,0
"2019-02-10 02:17:07+00",10.5,11.5,,28.9,-346,313,28,1038.5,27.7,0
"2019-02-10 02:22:07+00",11.1,12.1,,28.9,-398,298,28,1038.51,27.7,0
"2019-02-10 02:27:07+00",11.2,12.2,,28.8,-371,339,41,1038.43,27.8,0
"2019-02-10 02:32:07+00",10.4,11.4,,28.7,-338,310,40,1038.5,27.9,0
"2019-02-10 02:37:07+00",11.0,12.0,,28.6,-329,357,29,1038.51,27.7,0
"2019-02-10 02:42:07+00",12.4,13.4,,28.5,-387,399,44,1038.54,27.7,0
"2019-02-10 02:47:07+00",12.7,13.7,,28.3,-385,420,38,1038.61,27.6,0
"2019-02-10 02:52:07+00",11.2,12.2,,28.3,-355,346,32,1038.67,27.5,0
"2019-02-10 02:57:07+00",10.7,11.7,,28.3,-309,357,32,1038.72,27.5,0
"2019-02-10 03:02:07+00",11.9,12.9,,28.2,-321,412,34,1038.56,27.3,0
"2019-02-10 03:07:07+00",10.4,11.4,,28,-319,344,46,1038.52,27.2,0
"2019-02-10 03:12:07+00",11.6,12.6,,28,-311,407,32,1038.54,27.2,0
"2019-02-10 03:17:07+00",10.6,12.6,,28,-319,337,39,1038.62,27.2,0
"2019-02-10 03:22:07+00",10.9,11.9,,28,-329,358,42,1038.65,27.2,0
"2019-02-10 03:27:07+00",12.5,13.5,,27.8,-352,424,33,1038.59,27.1,0
"2019-02-10 03:32:07+00",9.8,11.8,,27.4,-228,354,24,1038.69,26.9,0
"2019-02-10 03:37:07+00",8.7,10.7,,27,-205,317,10,1038.81,26.5,0
"2019-02-10 03:42:07+00",11.5,13.5,,26.5,-272,418,21,1038.71,26,0
"2019-02-10 03:47:07+00",12.0,13.0,,26.2,-311,430,30,1038.57,25.5,0
"2019-02-10 03:52:07+00",11.0,13.0,,26.1,-297,391,28,1038.54,25.3,0
"2019-02-10 03:57:07+00",11.1,12.1,,26.2,-284,396,37,1038.33,25.3,0
"2019-02-10 04:02:07+00",12.6,13.6,,26.1,-340,438,35,1038.2,25.3,0
"2019-02-10 04:07:07+00",11.5,12.5,,26.1,-282,420,28,1038.11,25.3,0
"2019-02-10 04:12:07+00",10.0,12.0,,26.2,-242,371,23,1038.32,25.3,0
"2019-02-10 04:17:07+00",10.5,12.5,,26.2,-232,388,29,1038.33,25.3,0
"2019-02-10 04:22:07+00",12.9,14.9,,26,-282,490,36,1038.25,25.2,0
"2019-02-10 04:27:07+00",11.5,12.5,,25.8,-306,394,27,1038.42,25.1,0
"2019-02-10 04:32:07+00",11.2,12.2,,25.9,-282,409,29,1038.47,25.1,0
"2019-02-10 04:37:07+00",9.5,10.5,,25.8,-212,370,16,1038.55,25.1,0
"2019-02-10 04:42:07+00",9.0,10.0,,25.6,-175,348,19,1038.54,25,0
"2019-02-10 04:47:07+00",8.8,9.8,,25.3,-135,355,24,1038.33,24.7,0
"2019-02-10 04:52:07+00",6.9,8.9,,25.2,-81,285,7,1038.44,24.4,0
"2019-02-10 04:57:07+00",6.9,8.9,,25.2,-34,293,6,1038.47,24,0
"2019-02-10 05:02:07+00",8.8,9.8,,25.2,-126,358,16,1038.49,23.7,0
"2019-02-10 05:07:07+00",10.9,10.9,,25.4,-210,424,28,1038.43,23.6,0
"2019-02-10 05:12:07+00",10.0,11.0,,25.4,-199,382,17,1038.54,23.7,0
"2019-02-10 05:17:07+00",9.4,10.4,,25.5,-163,376,18,1038.49,24,0
"2019-02-10 05:22:07+00",9.8,9.8,,25.5,-200,384,21,1038.4,24.1,0
"2019-02-10 05:27:07+00",10.4,12.4,,25.6,-250,385,29,1038.36,24.4,0
"2019-02-10 05:32:07+00",10.5,12.5,,25.5,-218,401,23,1037.92,24.5,0
"2019-02-10 05:37:07+00",10.5,12.5,,25.3,-204,413,27,1037.92,24.4,0
"2019-02-10 05:42:07+00",10.5,12.5,,25.2,-177,415,13,1037.88,24.3,0
"2019-02-10 05:47:07+00",11.3,12.3,,25,-204,448,15,1037.89,24.2,0
"2019-02-10 05:52:07+00",11.4,13.4,,24.9,-216,449,27,1037.96,24.1,0
"2019-02-10 05:57:07+00",8.6,10.6,,24.9,-178,331,29,1037.93,24.1,0
"2019-02-10 06:02:07+00",8.7,9.7,,24.8,-127,355,19,1037.8,24,0
"2019-02-10 06:07:07+00",9.4,10.4,,24.4,-137,392,20,1037.57,23.8,0
"2019-02-10 06:12:07+00",7.9,8.9,,24.2,-135,311,17,1037.47,23.5,0
"2019-02-10 06:17:07+00",8.3,9.3,,24.1,-76,345,8,1037.42,23.2,0
"2019-02-10 06:22:07+00",8.3,9.3,,23.9,-91,349,14,1037.33,22.9,0
"2019-02-10 06:27:07+00",7.5,8.5,,23.6,-71,320,13,1037.17,22.5,0
"2019-02-10 06:32:07+00",6.6,7.6,,23.6,-27,276,10,1037.11,22.4,0
"2019-02-10 06:37:07+00",6.6,7.6,,23.6,-1,274,4,1037.22,22.1,0
"2019-02-10 06:42:07+00",7.7,8.7,,23.7,-4,325,9,1037.05,21.7,0
"2019-02-10 06:47:07+00",7.2,9.2,,23.7,9,303,14,1037.18,21.5,0
"2019-02-10 06:52:07+00",7.3,8.3,,23.6,-9,310,9,1037.07,21.2,0
"2019-02-10 06:57:07+00",8.0,9.0,,23.6,-44,339,9,1037.04,21.1,0
"2019-02-10 07:02:07+00",6.6,7.6,,23.4,-51,269,12,1036.98,21.1,0
"2019-02-10 07:07:07+00",6.5,7.5,,23.3,-22,272,14,1036.96,21.1,0
"2019-02-10 07:12:07+00",5.8,6.8,,23.3,-19,243,9,1036.95,21,0
"2019-02-10 07:17:07+00",7.3,8.3,,23.3,-22,311,6,1036.83,20.9,0
"2019-02-10 07:22:07+00",5.5,6.5,,23.4,-61,225,17,1036.82,21,0
"2019-02-10 07:27:07+00",4.4,5.4,,23.2,-53,165,4,1036.95,21,0
"2019-02-10 07:32:07+00",4.9,4.9,,23.2,-82,188,13,1036.84,21,0
"2019-02-10 07:37:07+00",5.0,6.0,,23.1,-120,169,14,1036.95,21.1,0
"2019-02-10 07:42:07+00",5.5,6.5,,23.3,-123,197,18,1037.01,21.2,0
"2019-02-10 07:47:07+00",6.3,7.3,,23.4,-130,238,13,1036.99,21.4,0
"2019-02-10 07:52:07+00",5.3,6.3,,23.4,-115,194,15,1037.05,21.4,0
"2019-02-10 07:57:07+00",5.2,5.2,,23.3,-116,188,12,1037.02,21.4,0
"2019-02-10 08:02:07+00",5.4,5.4,,23.2,-131,189,16,1037.14,21.4,0
"2019-02-10 08:07:07+00",5.2,5.2,,23.2,-99,196,13,1037.17,21.4,0
"2019-02-10 08:12:07+00",6.9,7.9,,23.2,-142,257,19,1037.07,21.4,0
"2019-02-10 08:17:07+00",5.4,6.4,,23,-72,215,8,1037.05,21.2,0
"2019-02-10 08:22:07+00",4.9,4.9,,22.8,-73,188,8,1037.12,21.1,0
"2019-02-10 08:27:07+00",5.6,6.6,,22.8,-126,200,16,1037.06,20.9,0
"2019-02-10 08:32:07+00",6.7,6.7,,22.8,-175,225,19,1037.12,21,0
"2019-02-10 08:37:07+00",6.8,7.8,,22.9,-198,218,16,1037.11,21.1,0
"2019-02-10 08:42:07+00",5.7,5.7,,23,-166,176,16,1037.1,21.3,0
"2019-02-10 08:47:07+00",6.0,7.0,,23.2,-188,174,15,1037.07,21.5,0
"2019-02-10 08:52:07+00",5.7,6.7,,23.3,-205,141,13,1037.08,21.7,0
"2019-02-10 08:57:07+00",6.6,7.6,,23.4,-230,174,22,1037.17,21.8,0
"2019-02-10 09:02:07+00",6.7,6.7,,23.5,-217,197,24,1037.15,22,0
"2019-02-10 09:07:07+00",6.9,7.9,,23.6,-221,210,28,1037.21,22.2,0
"2019-02-10 09:12:07+00",5.6,6.6,,23.5,-185,157,22,1037.27,22.3,0
"2019-02-10 09:17:07+00",7.6,8.6,,23.6,-236,237,24,1037.34,22.4,0
"2019-02-10 09:22:07+00",8.3,9.3,,23.9,-266,254,30,1037.39,22.7,0
"2019-02-10 09:27:07+00",8.0,8.0,,24,-250,243,24,1037.55,22.9,0
"2019-02-10 09:32:07+00",8.1,9.1,,24,-278,224,24,1037.55,23.1,0
"2019-02-10 09:37:07+00",8.8,9.8,,24.1,-316,235,32,1037.64,23.2,0
"2019-02-10 09:42:07+00",9.2,11.2,,24.2,-320,252,32,1037.74,23.3,0
"2019-02-10 09:47:07+00",8.1,9.1,,24.3,-308,180,12,1037.83,23.4,0
"2019-02-10 09:52:07+00",8.8,9.8,,24.1,-315,236,21,1037.98,23.4,0
"2019-02-10 09:57:07+00",9.2,11.2,,24.3,-314,240,35,1038.01,23.4,0
"2019-02-10 10:02:07+00",9.4,11.4,,24.3,-321,268,31,1038.14,23.5,0
"2019-02-10 10:07:07+00",9.6,11.6,,24.3,-337,250,34,1038.17,23.6,0
"2019-02-10 10:12:07+00",10.6,11.6,,24.2,-372,284,27,1038.16,23.6,0
"2019-02-10 10:17:07+00",11.0,12.0,,24.1,-372,321,30,1038.22,23.5,0
"2019-02-10 10:22:07+00",9.6,11.6,,24.1,-351,244,37,1038.24,23.5,0
"2019-02-10 10:27:07+00",9.3,10.3,,24,-310,273,36,1038.3,23.4,0
"2019-02-10 10:32:07+00",8.5,9.5,,23.8,-291,235,32,1038.41,23.3,0
"2019-02-10 10:37:07+00",9.2,11.2,,23.6,-324,268,39,1038.35,23.2,0
"2019-02-10 10:42:07+00",10.6,11.6,,23.3,-317,343,34,1038.3,23,0
"2019-02-10 10:47:07+00",9.1,11.1,,23.1,-283,277,24,1038.27,22.8,0
"2019-02-10 10:52:07+00",10.1,11.1,,22.8,-298,327,30,1038.27,22.5,0
"2019-02-10 10:57:07+00",8.1,9.1,,22.6,-270,221,36,1038.32,22.3,0
"2019-02-10 11:02:07+00",8.8,9.8,,22.5,-305,246,33,1038.18,22.1,0
"2019-02-10 11:07:07+00",8.8,9.8,,22.5,-317,217,26,1038.15,22,0
"2019-02-10 11:12:07+00",8.2,9.2,,22.5,-269,236,26,1038.15,22,0
"2019-02-10 11:17:07+00",7.9,8.9,,22.5,-254,234,22,1038.07,22,0
"2019-02-10 11:22:07+00",8.6,9.6,,22.4,-271,264,23,1038.09,21.9,0
"2019-02-10 11:27:07+00",8.6,9.6,,22.3,-297,237,33,1038.18,21.8,0
"2019-02-10 11:32:07+00",8.9,8.9,,22.2,-288,266,28,1038.01,21.8,0
"2019-02-10 11:37:07+00",7.7,8.7,,22.1,-226,248,25,1037.82,21.7,0
"2019-02-10 11:42:07+00",6.7,7.7,,22,-213,196,23,1037.67,21.5,0
"2019-02-10 11:47:07+00",6.2,6.2,,21.9,-146,221,21,1037.52,21.3,0
"2019-02-10 11:52:07+00",6.7,7.7,,21.5,-116,257,13,1037.44,20.9,0
"2019-02-10 11:57:07+00",7.1,8.1,,21.3,-153,262,16,1037.46,20.6,0
"2019-02-10 12:02:07+00",7.1,7.1,,21.1,-154,259,15,1037.38,20.4,0
"2019-02-10 12:07:07+00",6.9,7.9,,21,-147,252,13,1037.4,20.2,0
"2019-02-10 12:12:07+00",7.2,8.2,,21,-164,270,15,1037.39,20.1,0
"2019-02-10 12:17:07+00",7.6,7.6,,21.2,-171,272,14,1037.27,20.1,0
"2019-02-10 12:22:07+00",8.4,8.4,,21.5,-180,317,16,1037.21,20.2,0
"2019-02-10 12:27:07+00",7.5,8.5,,21.6,-157,285,17,1037.07,20.5,0
"2019-02-10 12:32:07+00",7.6,8.6,,21.6,-174,279,17,1037.08,20.8,11
"2019-02-10 12:37:07+00",6.3,7.3,,21.8,-156,218,21,1037.03,21.1,36.9
"2019-02-10 12:42:07+00",7.7,8.7,,22.2,-176,292,16,1037.11,21.7,46.1
"2019-02-10 12:47:07+00",8.3,9.3,,22.5,-174,309,23,1037.09,22.3,55.8
"2019-02-10 12:52:07+00",7.0,8.0,,22.8,-139,266,20,1036.97,23.1,65.8
"2019-02-10 12:57:07+00",6.9,7.9,,23.2,-149,263,31,1036.81,23.9,76.2
"2019-02-10 13:02:07+00",7.7,8.7,,23.4,-172,285,23,1036.93,24.5,86
"2019-02-10 13:07:07+00",7.3,8.3,,23.8,-179,258,20,1037.05,25,96.7
"2019-02-10 13:12:07+00",6.8,7.8,,24.2,-188,226,29,1037.21,25.6,106.6
"2019-02-10 13:17:07+00",7.6,8.6,,24.5,-213,248,29,1037.28,26.2,117.2
"2019-02-10 13:22:07+00",8.4,9.4,,24.7,-230,283,15,1037.34,26.6,128.7
"2019-02-10 13:27:07+00",7.6,8.6,,24.9,-220,245,37,1037.31,26.9,138.6
"2019-02-10 13:32:07+00",7.2,9.2,,25.1,-189,250,40,1037.24,27.1,149.3
"2019-02-10 13:37:07+00",7.5,8.5,,25.2,-186,270,16,1037.26,27.4,160
"2019-02-10 13:42:07+00",6.5,7.5,,25.3,-238,165,28,1037.17,27.6,169.4
"2019-02-10 13:47:07+00",7.0,8.0,,25.2,-225,210,5,1037.04,27.8,178.2
"2019-02-10 13:52:07+00",6.3,7.3,,25.3,-204,174,17,1037.17,27.9,187
"2019-02-10 13:57:07+00",6.3,7.3,,25.3,-227,158,10,1037.13,28,193.8
"2019-02-10 14:02:07+00",6.3,7.3,,25.5,-213,166,31,1037.26,28,203
"2019-02-10 14:07:07+00",6.6,7.6,,25.4,-237,146,3,1037.33,28.1,212.7
"2019-02-10 14:12:07+00",7.4,8.4,,25.6,-245,211,24,1037.27,28.3,221.3
"2019-02-10 14:17:07+00",8.0,9.0,,25.7,-304,173,41,1037.59,28.4,229.9
"2019-02-10 14:22:07+00",6.1,8.1,,25.7,-231,115,8,1037.58,28.4,237.4
"2019-02-10 14:27:07+00",6.8,9.8,,26,-278,104,33,1037.64,28.6,241.8
"2019-02-10 14:32:07+00",7.9,8.9,,26,-272,214,28,1037.67,28.8,246
"2019-02-10 14:37:07+00",7.7,9.7,,26.1,-323,94,14,1037.46,29,254.8
"2019-02-10 14:42:07+00",8.9,10.9,,26.5,-380,109,34,1037.33,29.3,261.4
"2019-02-10 14:47:07+00",6.9,8.9,,26.6,-275,130,51,1037.13,29.5,267.3
"2019-02-10 14:52:07+00",8.6,10.6,,26.6,-336,148,10,1037.11,29.5,259.7
"2019-02-10 14:57:07+00",9.2,11.2,,27,-386,138,56,1037.02,29.7,278.9
"2019-02-10 15:02:07+00",10.1,11.1,,27.2,-432,141,46,1037.02,30,277.5
"2019-02-10 15:07:07+00",9.1,11.1,,27.1,-396,77,30,1036.84,30.1,289.8
"2019-02-10 15:12:07+00",9.4,10.4,,27,-410,69,19,1036.79,30.2,270
"2019-02-10 15:17:07+00",7.4,9.4,,27.1,-316,6,25,1036.63,30.6,300.5
"2019-02-10 15:22:07+00",9.6,11.6,,27.4,-411,113,42,1036.64,30.7,307.6
"2019-02-10 15:27:07+00",10.2,11.2,,27.4,-442,81,21,1036.6,30.7,312.4
"2019-02-10 15:32:07+00",9.2,11.2,,27.9,-377,132,63,1036.8,30.9,317.1
"2019-02-10 15:37:07+00",10.9,11.9,,27.9,-477,88,45,1036.89,31,323.1
"2019-02-10 15:42:07+00",10.9,13.9,,28.2,-429,235,28,1036.92,31.3,327
"2019-02-10 15:47:07+00",10.7,12.7,,28.4,-412,225,31,1036.8,31.2,333.1
"2019-02-10 15:52:07+00",10.8,12.8,,29,-416,244,69,1036.8,31.6,326
"2019-02-10 15:57:07+00",12.3,13.3,,29.1,-477,273,36,1036.78,31.7,340.3
"2019-02-10 16:02:07+00",11.3,12.3,,29.2,-448,217,41,1036.84,31.8,345.1
"2019-02-10 16:07:07+00",10.6,12.6,,29.3,-399,244,23,1036.59,31.9,349.3
"2019-02-10 16:12:07+00",9.8,11.8,,29.4,-387,182,3,1036.78,32.4,353
"2019-02-10 16:17:07+00",10.9,11.9,,29.7,-437,209,14,1036.57,32.7,354.8
"2019-02-10 16:22:07+00",8.9,9.9,,30,-357,178,49,1036.5,33.1,358.7
"2019-02-10 16:27:07+00",11.8,12.8,,30.5,-491,164,13,1036.5,33.4,370
"2019-02-10 16:32:07+00",12.5,13.5,,30.8,-525,169,36,1036.13,33.8,346.3
"2019-02-10 16:37:07+00",11.2,13.2,,30.9,-490,75,12,1036.05,33.9,263.1
"2019-02-10 16:42:07+00",11.3,12.3,,31.1,-490,-29,37,1035.96,34.3,300.3
"2019-02-10 16:47:07+00",8.9,9.9,,30.9,-384,59,7,1035.99,34.4,337.4
"2019-02-10 16:52:07+00",10.8,12.8,,31.6,-473,82,49,1035.83,34.8,305.3
"2019-02-10 16:57:07+00",9.6,10.6,,31.7,-419,47,19,1035.76,35.3,312.8
"2019-02-10 17:02:07+00",9.1,11.1,,31.7,-390,-1,41,1035.59,35.4,328.3
"2019-02-10 17:07:07+00",9.5,11.5,,31.8,-411,-12,74,1035.63,35.7,282
"2019-02-10 17:12:07+00",7.7,9.7,,31.8,-328,-12,13,1035.55,35.8,290.8
"2019-02-10 17:17:07+00",10.9,12.9,,31.9,-477,91,15,1035.48,35.6,281.8
"2019-02-10 17:22:07+00",11.0,12.0,,32.3,-478,-28,43,1035.38,35.8,305.9
"2019-02-10 17:27:07+00",10.2,12.2,,32.4,-449,92,18,1034.97,36.2,320.1
"2019-02-10 17:32:07+00",12.6,14.6,,32.6,-553,39,21,1034.66,36,328.9
"2019-02-10 17:37:07+00",11.8,13.8,,32.6,-499,164,30,1034.49,36.1,329.5
"2019-02-10 17:42:07+00",11.0,14.0,,32.9,-487,80,55,1034.38,36.4,332.4
"2019-02-10 17:47:07+00",12.4,15.4,,33.1,-545,59,52,1034.55,36.4,289.1
"2019-02-10 17:52:07+00",10.5,12.5,,32.9,-446,63,22,1034.69,36.1,227.4
"2019-02-10 17:57:07+00",10.3,11.3,,33,-449,89,19,1034.49,36,256.7
"2019-02-10 18:02:07+00",10.2,12.2,,33.1,-440,91,11,1034.46,36.2,288.5
"2019-02-10 18:07:07+00",12.0,13.0,,33.1,-492,201,7,1034.33,36.3,330.5
"2019-02-10 18:12:07+00",11.8,13.8,,33.5,-487,190,33,1034.32,36.3,336.1
"2019-02-10 18:17:07+00",10.9,11.9,,33.6,-445,178,52,1034.4,36.4,296.7
"2019-02-10 18:22:07+00",9.1,11.1,,33.8,-339,225,57,1034.31,36.4,352.5
"2019-02-10 18:27:07+00",8.6,9.6,,33.8,-371,97,18,1034.26,36.5,288.6
"2019-02-10 18:32:07+00",9.2,10.2,,33.9,-378,139,15,1034.17,37.1,343.2
"2019-02-10 18:37:07+00",11.3,12.3,,34.2,-477,173,29,1034.14,37.4,285.9
"2019-02-10 18:42:07+00",8.1,10.1,,34.5,-308,188,27,1033.81,37.5,272.8
"2019-02-10 18:47:07+00",7.0,9.0,,34.3,-260,150,2,1033.73,37.6,246.3
"2019-02-10 18:52:07+00",8.4,9.4,,34.6,-326,137,29,1033.75,37.9,226.8
"2019-02-10 18:57:07+00",7.2,9.2,,34.8,-291,120,33,1033.6,38,265.3
"2019-02-10 19:02:07+00",7.2,8.2,,34.9,-308,86,25,1033.41,38.4,305.6
"2019-02-10 19:07:07+00",6.4,7.4,,34.7,-264,91,8,1033.27,38.7,107.5
"2019-02-10 19:12:07+00",5.9,6.9,,34.9,-212,127,22,1033.03,38.7,323.9
"2019-02-10 19:17:07+00",6.5,8.5,,35.3,-238,128,41,1032.83,39.2,305.5
"2019-02-10 19:22:07+00",6.8,7.8,,35.4,-239,183,15,1032.83,39.1,303.6
"2019-02-10 19:27:07+00",4.5,5.5,,35.3,-147,115,16,1032.68,38.9,72.9
"2019-02-10 19:32:07+00",5.1,6.1,,35.5,-192,87,42,1032.73,38.8,147.6
"2019-02-10 19:37:07+00",3.6,5.6,,35.5,-139,67,8,1032.59,39.2,274.5
"2019-02-10 19:42:07+00",5.7,6.7,,35.9,-183,161,18,1032.75,39.8,270.5
"2019-02-10 19:47:07+00",5.7,7.7,,35.8,-231,84,19,1032.86,40,247
"2019-02-10 19:52:07+00",4.9,5.9,,36,-206,2,31,1032.65,40.3,269.1
"2019-02-10 19:57:07+00",3.8,4.8,,36.3,-146,-31,-18,1032.52,40.6,254
"2019-02-10 20:02:07+00",1.8,2.8,,36.7,-58,16,-9,1032.52,40.9,226
"2019-02-10 20:07:07+00",2.3,2.3,,36.9,-66,-52,-7,1032.45,41,207.9
"2019-02-10 20:12:07+00",3.2,4.2,,37.3,-128,26,0,1032.23,41.4,237.5
"2019-02-10 20:17:07+00",2.0,3.0,,37.2,-59,-50,5,1032.16,41.7,185.2
"2019-02-10 20:22:07+00",3.5,5.5,,37.1,92,-102,-3,1032.18,40,173.5
"2019-02-10 20:27:07+00",6.1,8.1,,36.6,-112,-224,41,1031.94,38.6,153.9
"2019-02-10 20:32:07+00",1.5,5.5,,36.7,6,-41,40,1031.95,38.3,145.7
"2019-02-10 20:37:07+00",7.5,9.5,,35.8,37,-314,-11,1032.03,37.2,108.9
"2019-02-10 20:42:07+00",7.2,9.2,,35.6,36,-288,15,1032.13,36.7,103.9
"2019-02-10 20:47:07+00",6.2,7.2,,35.7,43,-258,-6,1031.98,36.6,78.2
"2019-02-10 20:52:07+00",6.0,7.0,,35.8,48,-238,10,1031.92,36.4,76.1
"2019-02-10 20:57:07+00",8.1,9.1,,35.6,125,-324,-8,1031.93,36.2,80
"2019-02-10 21:02:07+00",6.6,7.6,,35.6,85,-266,-12,1031.8,36.1,79.4
"2019-02-10 21:07:07+00",6.7,7.7,,35.9,76,-266,-3,1031.63,36.2,103.3
"2019-02-10 21:12:07+00",7.6,8.6,,36.3,59,-313,-1,1031.42,36.6,120.7
"2019-02-10 21:17:07+00",7.9,8.9,,36.3,27,-332,-13,1031.4,36.5,102
"2019-02-10 21:22:07+00",4.8,6.8,,36.7,-7,-187,16,1031.29,36.7,88.7
"2019-02-10 21:27:07+00",10.8,11.8,,36.3,-224,-417,5,1031.39,36.9,75.9
"2019-02-10 21:32:07+00",9.2,11.2,,35.9,-298,-270,28,1031.25,36.7,18.9
"2019-02-10 21:37:07+00",9.4,12.4,,35.5,-152,-373,-5,1031.26,36,0.5
"2019-02-10 21:42:07+00",9.0,10.0,,35,-234,-329,10,1031.24,35.3,0
"2019-02-10 21:47:07+00",10.8,11.8,,34.9,-272,-399,-3,1031.07,34.8,0
"2019-02-10 21:52:07+00",9.1,11.1,,34.8,-280,-303,9,1031.07,34.8,0
"2019-02-10 21:57:07+00",9.9,11.9,,34.7,-253,-368,8,1030.98,34.7,0
"2019-02-10 22:02:07+00",10.5,12.5,,34.7,-297,-372,11,1030.83,34.6,0
"2019-02-10 22:07:07+00",12.0,14.0,,34.8,-355,-396,3,1030.97,34.6,0
"2019-02-10 22:12:07+00",10.2,12.2,,34.8,-346,-270,4,1030.78,34.7,0
"2019-02-10 22:17:07+00",10.0,11.0,,35,-346,-261,23,1030.81,34.7,0
"2019-02-10 22:22:07+00",9.8,12.8,,35.2,-372,-232,22,1030.72,34.8,0
"2019-02-10 22:27:07+00",11.3,12.3,,35.3,-460,-243,16,1030.72,34.9,0
"2019-02-10 22:32:07+00",8.6,10.6,,35.2,-345,-174,12,1030.6,34.9,0
"2019-02-10 22:37:07+00",11.2,13.2,,35.1,-364,-336,6,1030.39,34.8,0
"2019-02-10 22:42:07+00",8.9,9.9,,35,-352,-200,16,1030.54,34.7,0
"2019-02-10 22:47:07+00",8.4,9.4,,35,-330,-181,15,1030.5,34.7,0
"2019-02-10 22:52:07+00",8.2,10.2,,35.1,-360,-148,12,1030.46,34.6,0
"2019-02-10 22:57:07+00",7.6,8.6,,34.9,-305,-76,5,1030.44,34.6,0
"2019-02-10 23:02:07+00",8.1,10.1,,34.7,-344,-169,15,1030.56,34.4,0
"2019-02-10 23:07:07+00",8.3,9.3,,34.8,-358,-153,8,1030.42,34.4,0
"2019-02-10 23:12:07+00",8.8,9.8,,34.7,-371,-139,6,1030.41,34.4,0
"2019-02-10 23:17:07+00",8.5,9.5,,34.7,-359,-178,14,1030.3,34.3,0
"2019-02-10 23:22:07+00",8.0,9.0,,34.6,-324,-169,17,1030.11,34.2,0
"2019-02-10 23:27:07+00",7.9,8.9,,34.5,-324,-171,10,1030.11,34.2,0
"2019-02-10 23:32:07+00",8.3,10.3,,34.4,-351,-151,6,1030.32,34.1,0
"2019-02-10 23:37:07+00",8.3,9.3,,34.5,-355,-142,24,1030.31,34.1,0
"2019-02-10 23:42:07+00",9.4,10.4,,34.4,-391,-67,15,1030.5,34,0
"2019-02-10 23:47:07+00",8.0,9.0,,34.4,-339,-34,13,1030.41,34,0
"2019-02-10 23:52:07+00",7.9,8.9,,34.5,-340,-21,11,1030.45,34,0
"2019-02-10 23:57:07+00",7.6,8.6,,34.4,-316,-47,10,1030.14,33.9,0
